Fort Myers, FL

3:23 AM EST on February 25, 2017 (GMT -0500)
Page

Weather History for KFMY - July, 2012

Change the Weather History Date:

Friday, July 13, 2012

  Actual Average Record
Temperature  
Mean Temperature 83 °F 83 °F  
Max Temperature 91 °F 92 °F 99 °F (1942)
Min Temperature 74 °F 74 °F 68 °F (1922)
Degree Days  
Heating Degree Days 0 0  
Month to date heating degree days 0 0  
Since 1 June heating degree days 0 0  
Since 1 July heating degree days 0 0  
Cooling Degree Days 18 18  
Month to date cooling degree days 244 234  
Year to date cooling degree days 2206 1825  
Since 1 June cooling degree days 768 759  
Growing Degree Days 32 (Base 50)    
Moisture  
Dew Point 73 °F    
Average Humidity 84    
Maximum Humidity 94    
Minimum Humidity 56    
Precipitation  
Precipitation 2.27 in 0.28 in 2.75 in (1913)
Month to date precipitation 7.28 3.88  
Year to date precipitation 25.01 25.77  
Sea Level Pressure  
Sea Level Pressure 30.02 in    
Wind  
Wind Speed 4 mph (SSW)    
Max Wind Speed 21 mph    
Max Gust Speed 26 mph    
Visibility 7 miles    
Events Fog , Rain , Thunderstorm    
T = Trace of Precipitation, MM = Missing Value Source: NWS Daily Summary

Daily Weather History Graph

Daily Weather History Graph

Search for Another Location

Airport or City:

Trip Planner

Search our weather history database for the weather conditions in past years. The results will help you decide how hot, cold, wet, or windy it might be!

Date:

Astronomy

Jul. 13, 2012 Rise Set
Actual Time 6:43 AM EDT 8:23 PM EDT
Civil Twilight 6:17 AM EDT 8:49 PM EDT
Nautical Twilight 5:46 AM EDT 9:19 PM EDT
Astronomical Twilight 5:13 AM EDT 9:52 PM EDT
Moon 2:12 AM EDT (7/13) 3:55 PM EDT (7/13)
Length of Visible Light 14h 31m
Length of Day
13h 40m
Waning Crescent, 26% of the Moon is Illuminated
Jul 13
Waning Crescent
Jul 19
New
Jul 26
First Quarter
Aug 1
Full
Aug 9
Last Quarter

Hourly Weather History & Observations

Time (EDT) Temp. Heat Index Dew Point Humidity Pressure Visibility Wind Dir Wind Speed Gust Speed Precip Events Conditions
12:42 AM 75.2 °F - 71.6 °F 89% 30.03 in 9.0 mi WNW 5.8 mph - 0.05 in Rain Light Rain
12:53 AM 75.9 °F - 72.0 °F 87% 30.03 in 10.0 mi WNW 6.9 mph - 0.05 in Rain , Thunderstorm Light Rain
1:15 AM 75.2 °F - 73.4 °F 94% 30.02 in 3.0 mi SW 5.8 mph - 0.03 in Rain Rain
1:21 AM 75.2 °F - 73.4 °F 94% 30.02 in 2.0 mi SSW 8.1 mph - 0.07 in Rain Heavy Rain
1:29 AM 75.2 °F - 73.4 °F 94% 30.02 in 3.0 mi SSW 5.8 mph - 0.13 in Rain Light Rain
1:37 AM 75.2 °F - 73.4 °F 94% 30.01 in 2.0 mi SW 6.9 mph - 0.19 in Rain Heavy Rain
1:45 AM 75.2 °F - 71.6 °F 89% 30.01 in 1.8 mi SW 6.9 mph - 0.27 in Rain Heavy Rain
1:53 AM 75.0 °F - 72.0 °F 90% 30.02 in 4.0 mi SW 5.8 mph - 0.31 in Rain Light Rain
2:53 AM 75.0 °F - 72.0 °F 90% 30.01 in 7.0 mi SSW 4.6 mph - 0.00 in Rain Light Rain
3:53 AM 75.9 °F - 72.0 °F 87% 30.00 in 10.0 mi Calm Calm - 0.02 in   Clear
4:53 AM 75.9 °F - 73.0 °F 91% 29.99 in 10.0 mi Calm Calm - N/A   Mostly Cloudy
5:21 AM 77.0 °F - 73.4 °F 89% 30.00 in 10.0 mi Calm Calm - 0.00 in Rain Light Rain
5:53 AM 77.0 °F - 73.0 °F 88% 30.01 in 10.0 mi Calm Calm - 0.03 in   Overcast
6:16 AM 77.0 °F - 73.4 °F 89% 30.01 in 10.0 mi Calm Calm - N/A   Overcast
6:53 AM 75.9 °F - 73.0 °F 91% 30.02 in 10.0 mi ENE 3.5 mph - 0.00 in   Scattered Clouds
7:27 AM 77.0 °F - 73.4 °F 89% 30.03 in 10.0 mi SW 3.5 mph - N/A   Mostly Cloudy
7:34 AM 77.0 °F - 73.4 °F 89% 30.03 in 7.0 mi SW 3.5 mph - 0.00 in Rain Light Rain
7:53 AM 77.0 °F - 73.9 °F 90% 30.04 in 5.0 mi WSW 4.6 mph - 0.02 in Rain Light Rain
8:53 AM 79.0 °F - 73.9 °F 84% 30.05 in 10.0 mi Calm Calm - 0.01 in   Scattered Clouds
9:08 AM 78.8 °F - 73.4 °F 83% 30.05 in 10.0 mi Calm Calm - N/A   Partly Cloudy
9:53 AM 81.0 °F 86.2 °F 73.9 °F 79% 30.06 in 10.0 mi South 3.5 mph - N/A   Mostly Cloudy
10:53 AM 82.9 °F 89.4 °F 73.9 °F 74% 30.05 in 10.0 mi SSE 4.6 mph - N/A   Partly Cloudy
11:38 AM 84.2 °F 90.9 °F 73.4 °F 70% 30.04 in 10.0 mi ESE 4.6 mph - N/A   Mostly Cloudy
11:53 AM 86.0 °F 93.0 °F 73.0 °F 65% 30.05 in 10.0 mi ENE 5.8 mph - N/A   Mostly Cloudy
12:19 PM 87.8 °F 95.6 °F 73.4 °F 62% 30.03 in 10.0 mi East 6.9 mph - N/A   Scattered Clouds
12:53 PM 87.1 °F 92.8 °F 71.1 °F 59% 30.04 in 10.0 mi SSE 5.8 mph - N/A   Mostly Cloudy
1:53 PM 90.0 °F 96.4 °F 71.1 °F 54% 30.02 in 10.0 mi ESE 6.9 mph - N/A   Scattered Clouds
2:53 PM 89.1 °F 96.0 °F 72.0 °F 57% 29.99 in 10.0 mi SSE 8.1 mph - N/A   Mostly Cloudy
3:42 PM 80.6 °F 85.4 °F 73.4 °F 79% 30.01 in 0.8 mi NW 10.4 mph - 0.13 in Rain Heavy Rain
3:53 PM 79.0 °F - 73.9 °F 84% 30.00 in 0.8 mi West 8.1 mph - 0.45 in Rain Heavy Rain
3:57 PM 78.8 °F - 73.4 °F 83% 29.99 in 2.5 mi WNW 6.9 mph - 0.01 in Rain Light Rain
4:04 PM 78.8 °F - 73.4 °F 83% 29.98 in 10.0 mi NW 8.1 mph - 0.01 in   Mostly Cloudy
4:18 PM 78.8 °F - 73.4 °F 83% 30.03 in 2.5 mi SSE 16.1 mph 19.6 mph 0.01 in Rain Light Rain
4:21 PM 78.8 °F - 75.2 °F 89% 30.03 in 0.8 mi SSW 13.8 mph 19.6 mph 0.06 in Rain Heavy Rain
4:29 PM 75.2 °F - 71.6 °F 89% 30.03 in 0.2 mi SW 15.0 mph 26.5 mph 0.54 in Fog , Rain Heavy Rain
4:45 PM 73.4 °F - 71.6 °F 94% 30.01 in 0.5 mi West 8.1 mph - 1.33 in Fog , Rain Light Rain
4:53 PM 75.0 °F - 72.0 °F 90% 29.99 in 1.0 mi West 12.7 mph - 1.43 in Rain Heavy Rain
4:59 PM 75.2 °F - 71.6 °F 89% 29.98 in 4.0 mi WSW 9.2 mph - 0.00 in Rain Light Rain
5:53 PM 81.0 °F 85.8 °F 73.0 °F 77% 29.99 in 10.0 mi NNE 4.6 mph - 0.00 in   Partly Cloudy
6:53 PM 80.1 °F 83.8 °F 72.0 °F 76% 29.99 in 10.0 mi NE 4.6 mph - N/A   Partly Cloudy
7:53 PM 80.1 °F 85.1 °F 75.0 °F 85% 30.01 in 10.0 mi Calm Calm - N/A   Partly Cloudy
8:53 PM 80.1 °F 85.1 °F 75.0 °F 85% 30.02 in 10.0 mi ENE 3.5 mph - N/A   Scattered Clouds
9:53 PM 79.0 °F - 75.9 °F 90% 30.04 in 10.0 mi Calm Calm - N/A   Mostly Cloudy
10:53 PM 79.0 °F - 75.9 °F 90% 30.05 in 10.0 mi Calm Calm - N/A   Partly Cloudy
11:53 PM 78.1 °F - 75.0 °F 90% 30.05 in 10.0 mi ENE 4.6 mph - N/A   Clear